Time,TemperatureF,DewpointF,PressureIn,WindDirection,WindDirectionDegrees,WindSpeedMPH,WindSpeedGustMPH,Humidity,HourlyPrecipIn,Conditions,Clouds,dailyrainin,SolarRadiationWatts/m^2,SoftwareType,DateUTC
2013-08-29 00:42:00,74.0,69.0,-100.00,SSE,162,0.0,4.0,84,0.00,,,0.00,0.000000,,2013-08-29 05:42:00,
2013-08-29 00:52:00,74.0,69.0,-100.00,SSE,162,0.0,4.0,84,0.00,,,0.00,0.000000,,2013-08-29 05:52:00,
2013-08-29 01:02:00,74.0,69.0,-100.00,SSE,162,0.0,4.0,84,0.00,,,0.00,0.000000,,2013-08-29 06:02:00,
2013-08-29 01:43:00,75.0,69.0,-100.00,SE,145,4.0,7.0,81,0.00,,,0.00,0.000000,,2013-08-29 06:43:00,
2013-08-29 01:52:00,75.0,69.0,-100.00,SE,145,4.0,7.0,81,0.00,,,0.00,0.000000,,2013-08-29 06:52:00,
2013-08-29 02:01:00,75.0,69.0,-100.00,SE,145,4.0,7.0,81,0.00,,,0.00,0.000000,,2013-08-29 07:01:00,
2013-08-29 02:42:00,73.0,69.0,-100.00,SSE,147,3.0,8.0,86,0.00,,,0.00,0.000000,,2013-08-29 07:42:00,
2013-08-29 02:53:00,73.0,69.0,-100.00,SSE,147,3.0,8.0,86,0.00,,,0.00,0.000000,,2013-08-29 07:53:00,
2013-08-29 03:02:00,73.0,69.0,-100.00,SSE,147,3.0,8.0,86,0.00,,,0.00,0.000000,,2013-08-29 08:02:00,
2013-08-29 03:42:00,72.0,69.0,-100.00,SSE,151,3.0,7.0,89,0.00,,,0.00,0.000000,,2013-08-29 08:42:00,
2013-08-29 03:52:00,72.0,69.0,-100.00,SSE,151,3.0,7.0,89,0.00,,,0.00,0.000000,,2013-08-29 08:52:00,
2013-08-29 04:01:00,72.0,69.0,-100.00,SSE,151,3.0,7.0,89,0.00,,,0.00,0.000000,,2013-08-29 09:01:00,
2013-08-29 04:05:00,71.0,69.0,-100.00,South,170,1.0,5.0,94,0.00,,,0.00,0.000000,,2013-08-29 09:05:00,
2013-08-29 04:43:00,71.0,69.0,-100.00,South,170,1.0,5.0,94,0.00,,,0.00,0.000000,,2013-08-29 09:43:00,
2013-08-29 04:55:00,71.0,69.0,-100.00,South,170,1.0,5.0,94,0.00,,,0.00,0.000000,,2013-08-29 09:55:00,
2013-08-29 05:43:00,70.0,69.0,-100.00,South,179,3.0,5.0,98,0.00,,,0.00,0.000000,,2013-08-29 10:43:00,
2013-08-29 05:53:00,70.0,69.0,-100.00,South,179,3.0,5.0,98,0.00,,,0.00,0.000000,,2013-08-29 10:53:00,
2013-08-29 06:03:00,70.0,69.0,-100.00,South,179,3.0,5.0,98,0.00,,,0.00,0.000000,,2013-08-29 11:03:00,
2013-08-29 06:42:00,69.0,69.0,-100.00,ESE,109,2.0,3.0,100,0.00,,,0.00,0.000000,,2013-08-29 11:42:00,
2013-08-29 06:52:00,69.0,69.0,-100.00,ESE,109,2.0,3.0,100,0.00,,,0.00,0.000000,,2013-08-29 11:52:00,
2013-08-29 07:02:00,69.0,69.0,-100.00,ESE,109,2.0,3.0,100,0.00,,,0.00,0.000000,,2013-08-29 12:02:00,
2013-08-29 07:42:00,69.0,68.0,-100.00,SSE,165,3.0,8.0,97,0.00,,,0.00,15.000000,,2013-08-29 12:42:00,
2013-08-29 07:52:00,69.0,68.0,-100.00,SSE,165,3.0,8.0,97,0.00,,,0.00,15.000000,,2013-08-29 12:52:00,
2013-08-29 08:02:00,69.0,68.0,-100.00,SSE,165,3.0,8.0,97,0.00,,,0.00,15.000000,,2013-08-29 13:02:00,
2013-08-29 08:42:00,73.0,70.0,-100.00,SE,140,6.0,9.0,89,0.00,,,0.00,148.000000,,2013-08-29 13:42:00,
2013-08-29 08:52:00,73.0,70.0,-100.00,SE,140,6.0,9.0,89,0.00,,,0.00,148.000000,,2013-08-29 13:52:00,
2013-08-29 09:02:00,73.0,70.0,-100.00,SE,140,6.0,9.0,89,0.00,,,0.00,148.000000,,2013-08-29 14:02:00,
2013-08-29 09:42:00,77.0,70.0,-100.00,SE,139,5.0,9.0,80,0.00,,,0.00,213.000000,,2013-08-29 14:42:00,
2013-08-29 09:52:00,77.0,70.0,-100.00,SE,139,5.0,9.0,80,0.00,,,0.00,213.000000,,2013-08-29 14:52:00,
2013-08-29 10:02:00,77.0,70.0,-100.00,SE,139,5.0,9.0,80,0.00,,,0.00,213.000000,,2013-08-29 15:02:00,
2013-08-29 10:05:00,79.0,69.0,-100.00,SSE,157,8.0,13.0,71,0.00,,,0.00,328.000000,,2013-08-29 15:05:00,
2013-08-29 10:43:00,79.0,69.0,-100.00,SSE,157,8.0,13.0,71,0.00,,,0.00,328.000000,,2013-08-29 15:43:00,
2013-08-29 10:53:00,79.0,69.0,-100.00,SSE,157,8.0,13.0,71,0.00,,,0.00,328.000000,,2013-08-29 15:53:00,
2013-08-29 11:43:00,82.0,70.0,-100.00,South,176,6.0,14.0,67,0.00,,,0.00,368.000000,,2013-08-29 16:43:00,
2013-08-29 11:54:00,82.0,70.0,-100.00,South,176,6.0,14.0,67,0.00,,,0.00,368.000000,,2013-08-29 16:54:00,
2013-08-29 12:03:00,82.0,70.0,-100.00,South,176,6.0,14.0,67,0.00,,,0.00,368.000000,,2013-08-29 17:03:00,
2013-08-29 12:44:00,85.0,70.0,-100.00,South,171,6.0,12.0,62,0.00,,,0.00,657.000000,,2013-08-29 17:44:00,
2013-08-29 12:53:00,85.0,70.0,-100.00,South,171,6.0,12.0,62,0.00,,,0.00,657.000000,,2013-08-29 17:53:00,
2013-08-29 13:02:00,85.0,70.0,-100.00,South,171,6.0,12.0,62,0.00,,,0.00,657.000000,,2013-08-29 18:02:00,
2013-08-29 13:42:00,88.0,72.0,-100.00,South,176,5.0,12.0,60,0.00,,,0.00,714.000000,,2013-08-29 18:42:00,
2013-08-29 13:52:00,88.0,72.0,-100.00,South,176,5.0,12.0,60,0.00,,,0.00,714.000000,,2013-08-29 18:52:00,
2013-08-29 14:01:00,88.0,72.0,-100.00,South,176,5.0,12.0,60,0.00,,,0.00,714.000000,,2013-08-29 19:01:00,
2013-08-29 14:42:00,89.0,72.0,-100.00,SSW,195,6.0,13.0,57,0.00,,,0.00,691.000000,,2013-08-29 19:42:00,
2013-08-29 14:53:00,89.0,72.0,-100.00,SSW,195,6.0,13.0,57,0.00,,,0.00,691.000000,,2013-08-29 19:53:00,
2013-08-29 15:02:00,89.0,72.0,-100.00,SSW,195,6.0,13.0,57,0.00,,,0.00,691.000000,,2013-08-29 20:02:00,
2013-08-29 15:42:00,91.0,72.0,-100.00,South,174,7.0,16.0,54,0.00,,,-99.99,598.000000,,2013-08-29 20:42:00,
2013-08-29 15:52:00,91.0,72.0,-100.00,South,174,7.0,16.0,54,0.00,,,-99.99,598.000000,,2013-08-29 20:52:00,
2013-08-29 16:01:00,91.0,72.0,-100.00,South,174,7.0,16.0,54,0.00,,,-99.99,598.000000,,2013-08-29 21:01:00,
2013-08-29 16:44:00,91.0,73.0,-100.00,SSE,166,7.0,14.0,55,0.00,,,0.00,594.000000,,2013-08-29 21:44:00,
2013-08-29 16:54:00,91.0,73.0,-100.00,SSE,166,7.0,14.0,55,0.00,,,0.00,594.000000,,2013-08-29 21:54:00,
2013-08-29 17:04:00,91.0,73.0,-100.00,SSE,166,7.0,14.0,55,0.00,,,0.00,594.000000,,2013-08-29 22:04:00,
2013-08-29 17:43:00,90.0,72.0,-100.00,South,176,7.0,13.0,55,0.00,,,0.00,410.000000,,2013-08-29 22:43:00,
2013-08-29 17:53:00,90.0,72.0,-100.00,South,176,7.0,13.0,55,0.00,,,0.00,410.000000,,2013-08-29 22:53:00,
2013-08-29 18:03:00,90.0,72.0,-100.00,South,176,7.0,13.0,55,0.00,,,0.00,410.000000,,2013-08-29 23:03:00,
2013-08-29 18:43:00,88.0,71.0,-100.00,South,188,6.0,14.0,57,0.00,,,0.00,219.000000,,2013-08-29 23:43:00,
2013-08-29 18:53:00,88.0,71.0,-100.00,South,188,6.0,14.0,57,0.00,,,0.00,219.000000,,2013-08-29 23:53:00,
2013-08-29 19:02:00,88.0,71.0,-100.00,South,188,6.0,14.0,57,0.00,,,0.00,219.000000,,2013-08-30 00:02:00,
2013-08-29 19:42:00,86.0,71.0,-100.00,South,178,5.0,13.0,62,0.00,,,0.00,79.000000,,2013-08-30 00:42:00,
2013-08-29 19:52:00,86.0,71.0,-100.00,South,178,5.0,13.0,62,0.00,,,0.00,79.000000,,2013-08-30 00:52:00,
2013-08-29 20:01:00,86.0,71.0,-100.00,South,178,5.0,13.0,62,0.00,,,0.00,79.000000,,2013-08-30 01:01:00,
2013-08-29 20:42:00,83.0,72.0,-100.00,South,178,3.0,7.0,70,0.00,,,0.00,16.000000,,2013-08-30 01:42:00,
2013-08-29 20:52:00,83.0,72.0,-100.00,South,178,3.0,7.0,70,0.00,,,0.00,16.000000,,2013-08-30 01:52:00,
2013-08-29 21:02:00,83.0,72.0,-100.00,South,178,3.0,7.0,70,0.00,,,0.00,16.000000,,2013-08-30 02:02:00,
2013-08-29 21:42:00,81.0,73.0,-100.00,South,183,3.0,7.0,76,0.00,,,0.00,0.000000,,2013-08-30 02:42:00,
2013-08-29 21:52:00,81.0,73.0,-100.00,South,183,3.0,7.0,76,0.00,,,0.00,0.000000,,2013-08-30 02:52:00,
2013-08-29 22:02:00,81.0,73.0,-100.00,South,183,3.0,7.0,76,0.00,,,0.00,0.000000,,2013-08-30 03:02:00,
2013-08-29 22:43:00,81.0,74.0,-100.00,South,174,4.0,9.0,79,0.00,,,0.00,0.000000,,2013-08-30 03:43:00,
2013-08-29 22:55:00,81.0,74.0,-100.00,South,174,4.0,9.0,79,0.00,,,0.00,0.000000,,2013-08-30 03:55:00,
2013-08-29 23:04:00,81.0,74.0,-100.00,South,174,4.0,9.0,79,0.00,,,0.00,0.000000,,2013-08-30 04:04:00,
2013-08-29 23:44:00,80.0,73.0,-100.00,South,177,4.0,8.0,80,0.00,,,0.00,0.000000,,2013-08-30 04:44:00,
2013-08-29 23:54:00,80.0,73.0,-100.00,South,177,4.0,8.0,80,0.00,,,0.00,0.000000,,2013-08-30 04:54:00,